This demonstration page uses our WeatherBlox Daily Observations layout. Learn more.

Left ArrowRight Arrow

39.08367, -84.50855

Hourly Observations for December 15, 2019

Temp ( °F °C ) Dew Point ( °F °C ) Humidity (%) Winds ( mph kmh ) Pressure ( in mb ) Visibility ( mi km ) Precip ( " mm )
12:08 am 00:08 Cloudy with Haze 39 3.9 33 0.6 79 79 WNW 13 20 29.89 1012 6 10 N/A
12:25 am 00:25 Cloudy with Haze 38 3.3 33 0.6 83 83 WNW 10 17 29.90 1013 6 10 N/A
12:53 am 00:53 Cloudy with Haze 38 3.3 32 undefined 79 79 WNW 7 11 29.89 1012 6 10 N/A
1:18 am 01:18 Cloudy 36 2.2 31 -0.6 82 82 WNW 10 17 29.91 1013 9 14 N/A
1:53 am 01:53 Cloudy 35 1.7 31 -0.6 85 85 W 13 20 29.92 1013 10 16 N/A
2:31 am 02:31 Cloudy 34 1.1 29 -1.7 82 82 W 13 20 29.97 1015 10 16 N/A
2:53 am 02:53 Cloudy 34 1.1 28 -2.2 79 79 WNW 9 15 29.96 1015 10 16 N/A
3:53 am 03:53 Cloudy 33 0.6 24 -4.4 70 70 W 12 19 29.98 1015 10 16 N/A
4:53 am 04:53 Cloudy 33 0.6 25 -3.9 72 72 W 10 17 30.02 1017 10 16 N/A
5:53 am 05:53 Cloudy 33 0.6 24 -4.4 70 70 W 9 15 30.05 1018 10 16 N/A
6:53 am 06:53 Cloudy 33 0.6 24 -4.4 70 70 W 10 17 30.09 1019 10 16 N/A
7:53 am 07:53 Cloudy 33 0.6 23 -5 66 66 W 9 15 30.11 1020 10 16 N/A
8:53 am 08:53 Cloudy 33 0.6 24 -4.4 70 70 WNW 5 7 30.13 1020 9 14 N/A
9:53 am 09:53 Cloudy 34 1.1 22 -5.6 61 61 WNW 9 15 30.16 1021 10 16 N/A
10:53 am 10:53 Mostly Sunny 35 1.7 22 -5.6 59 59 VRB 6 9 30.17 1022 10 16 N/A
11:53 am 11:53 Sunny 35 1.7 23 -5 61 61 W 6 9 30.18 1022 10 16 N/A
12:53 pm 12:53 Sunny 37 2.8 25 -3.9 62 62 SSW 8 13 30.16 1021 10 16 N/A
1:53 pm 13:53 Sunny 36 2.2 23 -5 59 59 N N/A 30.15 1021 10 16 N/A
2:53 pm 14:53 Cloudy 37 2.8 23 -5 57 57 N N/A 30.17 1022 10 16 N/A
3:53 pm 15:53 Cloudy 37 2.8 22 -5.6 54 54 N N/A 30.16 1021 10 16 N/A
4:53 pm 16:53 Cloudy 37 2.8 24 -4.4 59 59 N N/A 30.16 1022 10 16 N/A
5:53 pm 17:53 Cloudy 36 2.2 25 -3.9 64 64 N N/A 30.18 1022 10 16 N/A
6:07 pm 18:07 Cloudy with Light Snow 35 1.7 28 -2.2 76 76 SSE 9 15 30.20 1023 2 3 0.00 0.00
6:12 pm 18:12 Cloudy with Light Snow 33 0.6 30 -1.1 89 89 SSE 7 11 30.21 1023 1 2 0.00 0.00
6:20 pm 18:20 Mostly Cloudy with Light Snow 33 0.6 31 -0.6 92 92 S 5 7 30.21 1023 1 1 0.00 0.00
6:37 pm 18:37 Mostly Cloudy with Snow 33 0.6 31 -0.6 92 92 N N/A 30.20 1023 1 1 0.00 0.00
6:53 pm 18:53 Mostly Cloudy with Snow 32 undefined 31 -0.6 96 96 NE 5 7 30.17 1022 1 1 0.01 0.25
7:07 pm 19:07 Mostly Cloudy with Light Snow 32 undefined 32 undefined 100 100 NE 5 7 30.18 1022 1 1 0.00 0.00
7:33 pm 19:33 Cloudy with Light Snow 32 undefined 32 undefined 100 100 NE 7 11 30.16 1021 1 2 0.01 0.25
7:50 pm 19:50 Cloudy with Light Snow 32 undefined 32 undefined 100 100 NE 5 7 30.17 1022 1 1 0.01 0.25
7:53 pm 19:53 Cloudy with Light Snow 32 undefined 32 undefined 100 100 NE 5 7 30.15 1021 1 1 0.02 0.51
7:58 pm 19:58 Cloudy with Light Snow 32 undefined 32 undefined 100 100 NNE 5 7 30.18 1022 1 2 0.00 0.00
8:01 pm 20:01 Cloudy with Light Snow 32 undefined 32 undefined 100 100 NNE 6 9 30.17 1022 1 1 0.00 0.00
8:20 pm 20:20 Mostly Cloudy with Snow 32 undefined 32 undefined 100 100 NE 7 11 30.16 1021 1 1 0.01 0.25
8:37 pm 20:37 Cloudy with Light Snow 32 undefined 32 undefined 100 100 ENE 5 7 30.15 1021 1 2 0.01 0.25
8:53 pm 20:53 Cloudy with Light Snow 32 undefined 32 undefined 100 100 NNE 3 6 30.15 1021 1 2 0.02 0.51
9:11 pm 21:11 Cloudy with Snow 32 undefined 32 undefined 100 100 NNE 3 6 30.16 1021 1 1 0.01 0.25
9:23 pm 21:23 Cloudy with Light Snow 32 undefined 32 undefined 100 100 ENE 3 6 30.14 1021 1 2 0.01 0.25
9:53 pm 21:53 Cloudy with Light Snow 32 undefined 31 -0.6 96 96 N N/A 30.13 1020 1 2 0.03 0.76
10:13 pm 22:13 Cloudy with Light Snow 32 undefined 32 undefined 100 100 NNE 7 11 30.14 1021 1 2 0.01 0.25
10:53 pm 22:53 Cloudy with Light Snow 32 undefined 32 undefined 100 100 NNE 7 11 30.08 1019 2 3 0.03 0.76
11:07 pm 23:07 Cloudy with Light Snow 33 0.6 32 undefined 96 96 NE 7 11 30.10 1019 3 5 0.01 0.25
11:25 pm 23:25 Cloudy with Light Rain 33 0.6 32 undefined 96 96 NE 6 9 30.09 1019 4 6 0.02 0.51
11:33 pm 23:33 Cloudy with Light Snow 33 0.6 32 undefined 96 96 NNE 7 11 30.09 1019 3 4 0.02 0.51
11:45 pm 23:45 Cloudy with Light Snow 33 0.6 32 undefined 96 96 NNE 7 11 30.09 1019 2 3 0.03 0.76
11:53 pm 23:53 Cloudy with Light Snow 33 0.6 32 undefined 96 96 NNE 6 9 30.08 1019 2 3 0.03 0.76

Powered by AerisWeather